Regional Weather Roundup
Issued by NWS

Home | Current Version | Previous Version | Graphics & Text | Print | Product List | Glossary On
Versions: 1 2 3 4 5 6 7 8 9 10 11 12 13 14 15 16 17 18 19 20 21 22 23 24 25 26 27 28 29 30 31 32 33 34 35 36 37 38 39 40 41 42 43 44 45 46 47 48 49 50
000
ASUS45 KTFX 101419
RWRMT
MONTANA HOURLY WEATHER ROUNDUP
NATIONAL WEATHER SERVICE GREAT FALLS MT
819 AM MDT THU JUL 10 2014

NOTE: "FAIR" INDICATES FEW OR NO CLOUDS BELOW 12000 FEET WITH NO
SIGNIFICANT WEATHER AND/OR OBSTRUCTIONS TO VISIBILITY.

* THESE STATIONS ARE NOT UNDER NWS QUALITY CONTROL. THEY DO NOT
   REPORT WEATHER SUCH AS PRECIPITATION OR FOG.

MTZ001>007-043-101500-
WEST OF THE DIVIDE
CITY           SKY/WX    TMP DP  RH WIND       PRES   REMARKS
KALISPELL      SUNNY     59  54  84 CALM      29.86S
MISSOULA       SUNNY     63  52  68 SE3       29.96R
BUTTE          SUNNY     54  48  80 E3        30.09R
MULLAN PASS    SUNNY     61  37  41 SW7       30.05R
* ESSEX        N/A      N/A N/A N/A N/A        N/A
* LINCOLN      N/A       52  46  80 SE1        N/A
* LOOKOUT PASS N/A       58  44  60 E1         N/A
* POLSON       N/A       61  50  67 S1         N/A
* RONAN APT    SUNNY     63  55  75 N/A        N/A
* SEELEY LAKE  N/A       48  45  89 NE2        N/A
* THOMP F APT  SUNNY     60  46  60 NE1G6      N/A
* YAAK HILL    N/A       55  50  83 N/A        N/A
$$

MTZ008-052>055-101500-
SOUTHWEST MONTANA
CITY           SKY/WX    TMP DP  RH WIND       PRES   REMARKS
BOZEMAN        SUNNY     66  55  68 CALM      30.01R
DILLON         SUNNY     63  50  63 CALM      30.05R
W YELLOWSTONE  PTSUNNY   55  54  96 CALM      30.16R
* THREE FORKS  SUNNY     61  39  44 N/A        N/A
* BOULDER HILL N/A       60  46  60 SW8        N/A
* MONIDA PASS  N/A       55  49  80 NW4        N/A
* RAYNOLDS PAS N/A       56  25  30 S2         N/A
* WHITEHALL    N/A       57  51  80 N5         N/A
* WISE RIVER   N/A       48  48 100 SW2        N/A
$$

MTZ009>010-012-014-046-048-049-054-101500-
EAST SLOPES AND CENTRAL MONTANA
CITY           SKY/WX    TMP DP  RH WIND       PRES   REMARKS
CUT BANK       SUNNY     61  52  72 N16       29.93S
GREAT FALLS    SUNNY     64  52  65 NW8       29.92R
HELENA         SUNNY     66  52  61 CALM      29.97R
* CONRAD       SUNNY     63  57  81 NW7        N/A
* DEARBORN     N/A       64  51  63 S2         N/A
* EAST GLACIER N/A       55  49  80 N/A        N/A
* MONARCH      N/A       62  41  46 S6         N/A
* ROGERS PASS  N/A       64  44  48 SE5        N/A
* SAINT MARY   N/A       49  47  93 SE2        N/A
* SWEET GRASS  N/A       58  56  93 NW16       N/A
* WHITE SULPH  N/A       68  52  57 NW1G6      N/A
$$

MTZ011-013-016-021-035-040-045-047-050-051-101500-
NORTH CENTRAL MONTANA
CITY           SKY/WX    TMP DP  RH WIND       PRES   REMARKS
HAVRE          SUNNY     66  55  68 W12       29.83R
* FORT BENTON  SUNNY     66  52  61 SW8       29.89R
* CHESTER      N/A       65  53  65 NW4G10     N/A
* DENTON       N/A       74  50  43 NW6        N/A
* GEYSER       N/A       71  47  43 N/A        N/A
* JUDITH GAP   N/A       68  53  59 N/A        N/A
* LOMA         N/A       66  53  63 SW12       N/A
$$

MTZ017>020-022>027-061-062-101500-
NORTHEAST MONTANA
CITY           SKY/WX    TMP DP  RH WIND       PRES   REMARKS
GLASGOW        SUNNY     73  61  66 S17       29.72S
GLENDIVE       CLOUDY    64  59  84 SE3       29.84S
JORDAN         PTCLDY    75  57  54 S16G21    29.78S
SIDNEY         CLOUDY    64  61  90 SW8       29.83R
WOLF POINT     LGT RAIN  70  61  73 VRB7      29.76R
* BEAVER HILL  N/A       63  58  84 SE10       N/A
* CIRCLE       N/A       70  62  76 SE5        N/A
* LINDSAY DVD  N/A       62  60  93 SE9        N/A
* NAVAJO       N/A       70  61  73 S9G16      N/A
$$

MTZ028>042-056>058-101500-
SOUTHCENTRAL AND SOUTHEAST MONTANA
CITY           SKY/WX    TMP DP  RH WIND       PRES   REMARKS
BAKER          CLOUDY    64  57  78 E5        29.89S
BILLINGS       CLOUDY    73  54  51 W10       29.89S
LIVINGSTON     PTCLDY    66  52  61 NW9       29.99R
MILES CITY     PTSUNNY   70  63  79 S13       29.80S
* LAUREL APT   CLOUDY    66  54  65 N/A        N/A
* ROUNDUP APT  PTCLDY    72  50  46 SW5        N/A
* ALZADA       N/A       61  58  90 N/A        N/A
* HYSHAM       N/A       72  55  55 W6G11      N/A
* LAME DEER    N/A       69  54  59 NW2        N/A
* REED POINT   N/A       72  51  48 W6         N/A
* ROSCOE HILL  N/A       65  46  50 SE3        N/A
$$

REGIONAL REPORTS...DAKOTAS
CITY           SKY/WX    TMP DP  RH WIND       PRES   REMARKS
WILLISTON      LGT RAIN  70  55  59 NW5       29.82R
DICKINSON      CLOUDY    63  59  87 W5        29.87S
CROSBY         SUNNY     66  61  84 S17G26    29.76F
TIOGA          PTCLDY    64  64 100 S10       29.85F
BISMARCK       CLOUDY    64  57  78 SE7       29.89S
GRAND FORKS    SUNNY     66  55  68 S12       29.95R
FARGO          SUNNY     70  55  59 S12       29.98R
BUFFALO SD     CLOUDY    63  59  87 S8        29.81R
RAPID CITY     CLOUDY    63  61  93 S10       29.86F
$$

REGIONAL REPORTS...WYOMING/IDAHO/WASHINGTON
CITY           SKY/WX    TMP DP  RH WIND       PRES   REMARKS
GILLETTE       CLOUDY    68  57  68 SW15G23   29.96R
SHERIDAN       PTSUNNY   72  57  59 CALM      29.94S
YELLOWSTONE LA CLOUDY    55  48  77 CALM      30.25R
SALMON         SUNNY     57  55  93 CALM      30.06R
MULLAN PASS    SUNNY     61  37  41 SW7       30.05S
SAND POINT     SUNNY     59  50  72 CALM      29.85R
SPOKANE        SUNNY     64  43  47 W8        29.87R
$$

REGIONAL REPORTS...ALBERTA
CITY           SKY/WX    TMP DP  RH WIND       PRES   REMARKS
CALGARY        SUNNY     57  43  60 N10G18    29.93S
LETHBRIDGE     N/A       61  54  78 NW8       29.91R
MEDICINE HAT   N/A       63  55  75 NW9       29.84R
EDMONTON       PTSUNNY   55  48  77 SW8       29.86S
WATERTON GATE  N/A       59  50  72 W1         N/A
CARDSTON       N/A       61  54  78 NW3        N/A
MILK RIVER     N/A       61  52  72 NW13       N/A
$$

REGIONAL REPORTS...SASKATCHEWAN
CITY           SKY/WX    TMP DP  RH WIND       PRES   REMARKS
SWIFT CURRENT  PTSUNNY   66  57  73 NE10      29.74R
MOOSE JAW      SUNNY     72  61  68 S9        29.68R
REGINA         N/A       68  61  78 SE16      29.68F
VAL MARIE      N/A       68  54  61 W8         N/A
ASSINIBOIA     N/A       70  57  64 S6         N/A
CORONACH       N/A       72  59  64 S14        N/A

$$




USA.gov is the U.S. government's official web portal to all federal, state and local government web resources and services.